Home > Time Zones > World Clock > Weather > Japan > Tsu > Past weeks

Flag for Japan Weather past 2 weeks in Tsu, Japan

Now
57 °F

Refreshingly cool.


Feels Like: 57 °F
Forecast: 41 / 75 °F
Wind: 2 mph from West

Location: Tsu

Current Time: Apr 26, 2015 at 8:30:54 AM

Latest Report: Apr 26, 2015 at 7:00 AM


Visibility: N/A

Pressure: 30.18 "Hg

Humidity: 58%

Dew point: 42 °F

Location of TsuLocation

Historic Weather in Tsu — Graph

°F

Tsu temperature yesterday

Maximum temperature yesterday: 75 °F (at 2:00 PM)
Minimum temperature yesterday: 58 °F (at 5:00 AM)
Average temperature yesterday: 67 °F

Past Weeks' High & Low Weather Summary

 TemperatureHumidityPressure
High77 °F (Apr 23, 3:00 PM)98% (Apr 15, 2:00 AM)30.40 "Hg (Apr 15, 2:00 AM)
Low45 °F (Apr 18, 6:00 AM)15% (Apr 25, 3:00 PM)29.50 "Hg (Apr 20, 4:00 PM)
Average59 °F67%30.00 "Hg
* Reported Apr 11 7:00 AM — Apr 26 7:00 AM, Tsu, Weather by CustomWeather, © 2015

Note: Actual official high and low records may vary slightly from our data, if they occured in-between our weather recording intervals... More about our weather records

Advertising

Tsu weather history for previous 24 hours

 ConditionsComfort  
Time TempWeatherWind HumidityBarometerVisibility
7:00 AM
Sun, Apr 26
57 °FRefreshingly cool.2 mph58%30.18 "HgN/A
6:00 AM53 °FCool.5 mph58%30.17 "HgN/A
5:00 AM54 °FCool.5 mph55%30.15 "HgN/A
4:00 AM53 °FCool.3 mph49%30.14 "HgN/A
3:00 AM54 °FCool.7 mph53%30.14 "HgN/A
2:00 AM54 °FCool.5 mph47%30.13 "HgN/A
1:00 AM56 °FRefreshingly cool.6 mph42%30.13 "HgN/A
12:00 AM57 °FRefreshingly cool.6 mph39%30.12 "HgN/A
11:00 PM
Sat, Apr 25
60 °FRefreshingly cool.3 mph34%30.11 "HgN/A
10:00 PM61 °FRefreshingly cool.8 mph33%30.10 "HgN/A
9:00 PM65 °FClear.9 mph21%30.09 "Hg12 mi
8:00 PM65 °FMild.9 mph22%30.06 "HgN/A
7:00 PM66 °FMild.12 mph25%30.03 "HgN/A
6:00 PM69 °FMild.13 mph22%30.02 "HgN/A
5:00 PM72 °FMild.13 mph17%30.00 "HgN/A
4:00 PM74 °FMild.10 mph16%30.00 "HgN/A
3:00 PM75 °FPassing clouds.13 mph15%30.00 "Hg16 mi
2:00 PM75 °FMild.3 mph16%30.00 "HgN/A
1:00 PM72 °FMild.7 mph24%30.02 "HgN/A
12:00 PM70 °FMild.6 mph25%30.04 "HgN/A
11:00 AM71 °FMild.7 mph27%30.06 "HgN/A
10:00 AM71 °FMild.6 mph25%30.06 "HgN/A
9:00 AM69 °FSunny.7 mph23%30.06 "Hg16 mi
8:00 AM66 °FMild.7 mph34%30.06 "HgN/A
Weather by CustomWeather, © 2015

See weather overviewHow to use our weather pages